• In Lithuania
  • List of Countries
  • For 7 days
  • Water Temperature
  • Satellite Maps
  • Weather Map
  • Weather Widgets
  • user-avatar
    Login

    Hourly Weather Berat

    Today, 25 February, Sunday

    Time Temperature Precipitation Wind Pressure Humidity
    00:00 +7°C° 0.1 mm 2 mps 738 mmHg 84%
    01:00 +7°C° 0 mm 2 mps 738 mmHg 84%
    02:00 +7°C° 0.1 mm 2 mps 738 mmHg 83%
    03:00 +7°C° 0.1 mm 2 mps 738 mmHg 83%
    04:00 +6°C° 0.1 mm 2 mps 738 mmHg 83%
    05:00 +5°C° 0.2 mm 3 mps 738 mmHg 82%
    06:00 +5°C° 0.2 mm 3 mps 738 mmHg 82%
    07:00 +5°C° 0.2 mm 3 mps 738 mmHg 82%
    08:00 +7°C° 0.2 mm 3 mps 738 mmHg 80%
    09:00 +7°C° 0.2 mm 4 mps 738 mmHg 78%
    10:00 +8°C° 0.2 mm 4 mps 739 mmHg 76%
    11:00 +8°C° 0.5 mm 4 mps 738 mmHg 76%
    12:00 +10°C° 0.5 mm 3 mps 738 mmHg 76%
    13:00 +10°C° 0.5 mm 3 mps 738 mmHg 77%
    14:00 +9°C° 1.2 mm 3 mps 737 mmHg 80%
    15:00 +8°C° 1.2 mm 3 mps 737 mmHg 84%
    16:00 +8°C° 1.2 mm 3 mps 736 mmHg 87%
    17:00 +7°C° 2.2 mm 3 mps 736 mmHg 88%
    18:00 +7°C° 2.2 mm 3 mps 735 mmHg 88%
    19:00 +5°C° 2.2 mm 3 mps 735 mmHg 88%
    20:00 +5°C° 3.3 mm 3 mps 735 mmHg 89%
    21:00 +4°C° 3.3 mm 4 mps 734 mmHg 89%
    22:00 +4°C° 3.3 mm 4 mps 734 mmHg 89%
    23:00 +4°C° 2.8 mm 4 mps 733 mmHg 90%

    Tomorrow, 26 February, Monday

    Time Temperature Precipitation Wind Pressure Humidity
    00:00 +3°C° 2.8 mm 4 mps 733 mmHg 90%
    01:00 +3°C° 2.8 mm 4 mps 733 mmHg 91%
    02:00 +1°C° 0.5 mm 4 mps 732 mmHg 90%
    03:00 +1°C° 0.5 mm 4 mps 732 mmHg 89%
    04:00 +1°C° 0.5 mm 4 mps 732 mmHg 89%
    05:00 +2°C° 0.4 mm 3 mps 732 mmHg 89%
    06:00 +2°C° 0.4 mm 3 mps 732 mmHg 90%
    07:00 +2°C° 0.4 mm 3 mps 732 mmHg 91%
    08:00 +3°C° 0.2 mm 2 mps 733 mmHg 89%
    09:00 +4°C° 0.2 mm 2 mps 733 mmHg 87%
    10:00 +5°C° 0.2 mm 2 mps 733 mmHg 85%
    11:00 +6°C° 0 mm 2 mps 733 mmHg 84%
    12:00 +7°C° 0 mm 1 mps 732 mmHg 83%
    13:00 +8°C° 0 mm 1 mps 732 mmHg 82%
    14:00 +8°C° 0.3 mm 1 mps 732 mmHg 83%
    15:00 +7°C° 0.3 mm 2 mps 732 mmHg 85%
    16:00 +7°C° 0.3 mm 2 mps 732 mmHg 86%
    17:00 +6°C° 0.9 mm 2 mps 733 mmHg 89%
    18:00 +6°C° 0.9 mm 2 mps 733 mmHg 92%
    19:00 +5°C° 0.9 mm 2 mps 733 mmHg 95%
    20:00 +5°C° 0.3 mm 2 mps 734 mmHg 95%
    21:00 +5°C° 0.3 mm 2 mps 734 mmHg 95%
    22:00 +4°C° 0.3 mm 2 mps 734 mmHg 95%
    23:00 +4°C° 0.2 mm 2 mps 735 mmHg 94%

    Day after tomorrow, 27 February, Tuesday

    Time Temperature Precipitation Wind Pressure Humidity
    00:00 +4°C° 0.2 mm 2 mps 735 mmHg 94%
    01:00 +3°C° 0.2 mm 2 mps 735 mmHg 93%
    02:00 +3°C° 0.3 mm 2 mps 736 mmHg 93%
    03:00 +3°C° 0.3 mm 2 mps 736 mmHg 92%
    04:00 +3°C° 0.3 mm 2 mps 736 mmHg 92%
    05:00 +3°C° 0.2 mm 2 mps 737 mmHg 91%
    06:00 +3°C° 0.2 mm 2 mps 737 mmHg 90%
    07:00 +2°C° 0.2 mm 2 mps 737 mmHg 89%
    08:00 +2°C° 0.2 mm 3 mps 738 mmHg 86%
    09:00 +3°C° 0.2 mm 3 mps 738 mmHg 82%
    10:00 +4°C° 0.2 mm 4 mps 738 mmHg 78%
    11:00 +4°C° 0.2 mm 3 mps 738 mmHg 77%
    12:00 +5°C° 0.2 mm 3 mps 738 mmHg 76%
    13:00 +5°C° 0.2 mm 3 mps 738 mmHg 75%
    14:00 +6°C° 0.1 mm 2 mps 738 mmHg 76%
    15:00 +6°C° 0.1 mm 2 mps 738 mmHg 76%
    16:00 +7°C° 0.1 mm 1 mps 738 mmHg 76%
    17:00 +5°C° 0.3 mm 2 mps 738 mmHg 80%
    18:00 +5°C° 0.3 mm 2 mps 738 mmHg 84%
    19:00 +3°C° 0.3 mm 3 mps 738 mmHg 88%
    20:00 +3°C° 0.5 mm 3 mps 738 mmHg 88%
    21:00 +3°C° 0.5 mm 3 mps 737 mmHg 87%
    22:00 +3°C° 0.5 mm 3 mps 737 mmHg 87%
    23:00 +3°C° 0.9 mm 3 mps 736 mmHg 88%

    28 February, Wednesday

    Time Temperature Precipitation Wind Pressure Humidity
    00:00 +3°C° 0.9 mm 3 mps 736 mmHg 89%
    01:00 +3°C° 0.9 mm 3 mps 735 mmHg 89%
    02:00 +4°C° 0.7 mm 3 mps 735 mmHg 91%
    03:00 +4°C° 0.7 mm 3 mps 735 mmHg 92%
    04:00 +4°C° 0.7 mm 3 mps 735 mmHg 93%
    05:00 +4°C° 0.2 mm 3 mps 736 mmHg 93%
    06:00 +3°C° 0.2 mm 3 mps 736 mmHg 94%
    07:00 +3°C° 0.2 mm 3 mps 737 mmHg 94%
    08:00 +4°C° 0 mm 3 mps 737 mmHg 90%
    09:00 +4°C° 0 mm 3 mps 738 mmHg 86%
    10:00 +5°C° 0 mm 3 mps 738 mmHg 82%
    11:00 +5°C° 0.1 mm 4 mps 739 mmHg 79%
    12:00 +5°C° 0.1 mm 4 mps 739 mmHg 75%
    13:00 +5°C° 0.1 mm 4 mps 740 mmHg 72%
    14:00 +5°C° 0.2 mm 5 mps 740 mmHg 74%
    15:00 +3°C° 0.2 mm 5 mps 741 mmHg 77%
    16:00 +3°C° 0.2 mm 5 mps 741 mmHg 79%
    17:00 +3°C° 0.1 mm 4 mps 742 mmHg 81%
    18:00 +1°C° 0.1 mm 4 mps 743 mmHg 83%
    19:00 +1°C° 0.1 mm 3 mps 744 mmHg 85%
    20:00 +1°C° 0 mm 3 mps 745 mmHg 85%
    21:00 +1°C° 0 mm 2 mps 745 mmHg 85%
    22:00 +1°C° 0 mm 2 mps 746 mmHg 85%
    23:00 -1°C° 0 mm 2 mps 746 mmHg 86%

    1 March, Thursday

    Time Temperature Precipitation Wind Pressure Humidity
    00:00 -1°C° 0 mm 2 mps 746 mmHg 86%
    01:00 -1°C° 0 mm 2 mps 747 mmHg 87%
    02:00 -1°C° 0 mm 2 mps 747 mmHg 86%
    03:00 -1°C° 0 mm 2 mps 747 mmHg 85%
    04:00 -2°C° 0 mm 2 mps 747 mmHg 85%
    05:00 -1°C° 0 mm 2 mps 747 mmHg 82%
    06:00 -1°C° 0 mm 2 mps 747 mmHg 79%
    07:00 -1°C° 0 mm 2 mps 747 mmHg 77%
    08:00 +2°C° 0 mm 2 mps 747 mmHg 72%
    09:00 +4°C° 0 mm 2 mps 747 mmHg 67%
    10:00 +6°C° 0 mm 2 mps 747 mmHg 62%
    11:00 +7°C° 0 mm 2 mps 746 mmHg 64%
    12:00 +7°C° 0 mm 2 mps 746 mmHg 66%
    13:00 +8°C° 0 mm 2 mps 746 mmHg 67%
    14:00 +7°C° 0.2 mm 2 mps 745 mmHg 70%
    15:00 +7°C° 0.2 mm 2 mps 745 mmHg 73%
    16:00 +7°C° 0.2 mm 3 mps 744 mmHg 76%
    17:00 +7°C° 0.3 mm 3 mps 744 mmHg 78%
    18:00 +5°C° 0.3 mm 3 mps 744 mmHg 80%
    19:00 +5°C° 0.3 mm 4 mps 744 mmHg 82%
    20:00 +5°C° 0.3 mm 4 mps 744 mmHg 83%
    21:00 +5°C° 0.3 mm 4 mps 744 mmHg 83%
    22:00 +5°C° 0.3 mm 4 mps 744 mmHg 84%
    23:00 +5°C° 0.3 mm 4 mps 743 mmHg 84%

    2 March, Friday

    Time Temperature Precipitation Wind Pressure Humidity
    00:00 +5°C° 0.3 mm 4 mps 743 mmHg 84%
    01:00 +5°C° 0.3 mm 5 mps 742 mmHg 85%
    02:00 +6°C° 0.4 mm 5 mps 742 mmHg 85%
    03:00 +6°C° 0.4 mm 4 mps 741 mmHg 86%
    04:00 +6°C° 0.4 mm 4 mps 741 mmHg 87%
    05:00 +6°C° 0.9 mm 5 mps 740 mmHg 87%
    06:00 +6°C° 0.9 mm 5 mps 740 mmHg 88%
    07:00 +6°C° 0.9 mm 5 mps 739 mmHg 89%
    08:00 +7°C° 0.8 mm 5 mps 739 mmHg 88%
    09:00 +7°C° 0.8 mm 5 mps 739 mmHg 88%
    10:00 +8°C° 0.8 mm 5 mps 739 mmHg 88%
    11:00 +8°C° 0.4 mm 5 mps 738 mmHg 87%
    12:00 +9°C° 0.4 mm 5 mps 738 mmHg 86%
    13:00 +9°C° 0.4 mm 5 mps 737 mmHg 86%
    14:00 +9°C° 0.9 mm 5 mps 737 mmHg 87%
    15:00 +10°C° 0.9 mm 4 mps 737 mmHg 89%
    16:00 +8°C° 0.9 mm 4 mps 736 mmHg 90%
    17:00 +8°C° 0.5 mm 4 mps 736 mmHg 90%
    18:00 +8°C° 0.5 mm 4 mps 736 mmHg 90%
    19:00 +7°C° 0.5 mm 4 mps 736 mmHg 90%
    20:00 +7°C° 1.2 mm 4 mps 736 mmHg 91%
    21:00 +8°C° 1.2 mm 3 mps 736 mmHg 91%
    22:00 +8°C° 1.2 mm 3 mps 736 mmHg 92%
    23:00 +8°C° 1 mm 3 mps 736 mmHg 92%
    Show more